TimeMDT,TemperatureF,Dew PointF,Humidity,Sea Level PressureIn,VisibilityMPH,Wind Direction,Wind SpeedMPH,Gust SpeedMPH,PrecipitationIn,Events,Conditions,WindDirDegrees,DateUTC
12:53 AM,18.0,12.9,81,30.38,10.0,SSE,10.4,-,N/A,,Clear,160,2013-03-20 06:53:00
1:53 AM,19.0,12.9,77,30.35,10.0,South,11.5,-,N/A,,Clear,180,2013-03-20 07:53:00
2:53 AM,18.0,12.9,81,30.32,10.0,South,10.4,-,N/A,,Clear,170,2013-03-20 08:53:00
3:53 AM,19.0,12.9,77,30.27,10.0,South,15.0,-,N/A,,Clear,180,2013-03-20 09:53:00
4:53 AM,19.9,12.9,74,30.24,10.0,South,17.3,-,N/A,,Clear,170,2013-03-20 10:53:00
5:53 AM,19.9,12.9,74,30.22,10.0,South,19.6,-,N/A,,Clear,180,2013-03-20 11:53:00
6:53 AM,19.9,12.9,74,30.19,10.0,South,16.1,-,N/A,,Clear,170,2013-03-20 12:53:00
7:53 AM,21.9,14.0,72,30.19,10.0,SSE,21.9,28.8,N/A,,Clear,160,2013-03-20 13:53:00
8:53 AM,25.0,16.0,69,30.14,10.0,South,27.6,-,N/A,,Clear,170,2013-03-20 14:53:00
9:53 AM,30.0,18.0,61,30.10,10.0,SSE,23.0,31.1,N/A,,Clear,160,2013-03-20 15:53:00
10:53 AM,36.0,17.1,46,30.02,10.0,SSE,23.0,32.2,N/A,,Clear,160,2013-03-20 16:53:00
11:53 AM,39.0,16.0,39,29.97,10.0,SSE,28.8,34.5,N/A,,Clear,150,2013-03-20 17:53:00
12:53 PM,42.1,16.0,35,29.91,10.0,SSE,24.2,32.2,N/A,,Clear,150,2013-03-20 18:53:00
1:53 PM,46.0,16.0,30,29.85,10.0,SSE,25.3,32.2,N/A,,Clear,160,2013-03-20 19:53:00
2:53 PM,50.0,17.1,27,29.80,10.0,SE,16.1,27.6,N/A,,Overcast,140,2013-03-20 20:53:00
3:53 PM,51.1,17.1,26,29.75,10.0,SSE,19.6,-,N/A,,Partly Cloudy,150,2013-03-20 21:53:00
4:53 PM,53.1,19.0,26,29.71,10.0,South,20.7,-,N/A,,Mostly Cloudy,170,2013-03-20 22:53:00
5:53 PM,52.0,19.0,27,29.70,10.0,SSE,13.8,-,N/A,,Clear,150,2013-03-20 23:53:00
6:53 PM,48.9,19.0,31,29.69,10.0,SE,16.1,-,N/A,,Partly Cloudy,140,2013-03-21 00:53:00
7:53 PM,43.0,19.9,40,29.69,10.0,SE,13.8,-,N/A,,Clear,140,2013-03-21 01:53:00
8:53 PM,39.9,19.9,45,29.68,10.0,SSE,11.5,-,N/A,,Clear,160,2013-03-21 02:53:00
9:53 PM,35.1,19.0,52,29.68,10.0,SSE,8.1,-,N/A,,Clear,160,2013-03-21 03:53:00
10:53 PM,32.0,19.9,61,29.66,10.0,SSE,3.5,-,N/A,,Partly Cloudy,150,2013-03-21 04:53:00
11:53 PM,26.6,19.4,74,29.59,10.0,North,5.8,-,N/A,,Clear,350,2013-03-21 05:53:00